Flag for U.S.A. Weather past 2 weeks in Philadelphia, Pennsylvania, U.S.A.

Now
62 °F

Passing clouds.


Feels Like: 62 °F
Forecast: 59 / 79 °F
Wind: 7 mph from North

Location: Philadelphia International Airport

Current Time: Aug 29, 2014 at 4:35:24 AM

Latest Report: Aug 29, 2014 at 3:54 AM


Visibility: 10 mi

Pressure: 30.10 "Hg

Humidity: 60%

Dew point: 48 °F

Location of PhiladelphiaLocation

Historic Weather in Philadelphia — Graph

°F

Philadelphia temperature yesterday

Maximum temperature yesterday: 80 °F (at 1:54 PM)
Minimum temperature yesterday: 68 °F (at 11:54 PM)
Average temperature yesterday: 76 °F

Past Weeks' High & Low Weather Summary

 TemperatureHumidityPressure
High89 °F (Aug 26, 1:54 PM)90% (Aug 22, 2:54 AM)30.19 "Hg (Aug 22, 2:54 AM)
Low60 °F (Aug 15, 4:54 AM)33% (Aug 15, 4:54 PM)29.82 "Hg (Aug 18, 6:54 PM)
Average74 °F63%30.00 "Hg
* Reported Aug 14 2:54 AM — Aug 29 2:54 AM, Philadelphia, Weather by CustomWeather, © 2014

Note: Actual official high and low records may vary slightly from our data, if they occured in-between our weather recording intervals... More about our weather records

Advertising

Philadelphia weather history for previous 24 hours

 ConditionsComfort  
Time TempWeatherWind HumidityBarometerVisibility
2:54 AM
Aug 29
64 °FClear.7 mph56%30.10 "Hg10 mi
1:54 AM66 °FPassing clouds.10 mph50%30.10 "Hg10 mi
12:54 AM67 °FClear.10 mph49%30.11 "Hg10 mi
11:54 PM
Aug 28
68 °FClear.13 mph49%30.09 "Hg10 mi
10:54 PM71 °FPassing clouds.14 mph45%30.07 "Hg10 mi
9:54 PM72 °FPassing clouds.9 mph49%30.05 "Hg10 mi
8:54 PM75 °FClear.8 mph45%30.02 "Hg10 mi
7:54 PM76 °FPassing clouds.9 mph40%30.00 "Hg10 mi
6:54 PM78 °FPassing clouds.13 mph37%29.97 "Hg10 mi
5:54 PM79 °FPassing clouds.12 mph38%29.96 "Hg10 mi
4:54 PM80 °FPassing clouds.13 mph35%29.95 "Hg10 mi
3:54 PM80 °FScattered clouds.18 mph39%29.93 "Hg10 mi
2:54 PM80 °FPassing clouds.16 mph42%29.93 "Hg10 mi
1:54 PM80 °FPassing clouds.17 mph42%29.93 "Hg10 mi
12:54 PM79 °FPassing clouds.13 mph41%29.94 "Hg10 mi
11:54 AM77 °FPassing clouds.17 mph45%29.95 "Hg10 mi
10:54 AM75 °FPassing clouds.14 mph48%29.96 "Hg10 mi
9:54 AM74 °FPassing clouds.14 mph50%29.95 "Hg10 mi
8:54 AM72 °FPassing clouds.15 mph55%29.95 "Hg10 mi
7:54 AM72 °FPassing clouds.16 mph57%29.93 "Hg10 mi
6:54 AM72 °FPassing clouds.14 mph59%29.91 "Hg10 mi
5:54 AM75 °FPassing clouds.12 mph58%29.90 "Hg10 mi
4:54 AM76 °FPassing clouds.9 mph64%29.87 "Hg10 mi
Weather by CustomWeather, © 2014

See weather overviewHow to use our weather pages